When you browse on this site, cookies collect data to enhance your experience and personalize the content and advertising you see.
Visit our Privacy Policy to learn more. By continuing to use the site, you agree to this use of cookies and data.
  • In Latvia
  • List of Countries
  • For 7 days
  • Water Temperature
  • Weather Map
  • Weather Widgets
  • user-avatar
    Login

    Hourly Weather Golyn

    Today, 21 February, Friday

    Time Temperature Precipitation Wind Pressure Humidity
    00:00 0°C° 0 mm 5 mps 747 mmHg 77%
    01:00 -1°C° 0 mm 6 mps 747 mmHg 78%
    02:00 -1°C° 0 mm 6 mps 746 mmHg 76%
    03:00 -1°C° 0 mm 6 mps 745 mmHg 75%
    04:00 -1°C° 0 mm 7 mps 744 mmHg 73%
    05:00 -1°C° 0 mm 6 mps 744 mmHg 74%
    06:00 +1°C° 0 mm 6 mps 743 mmHg 75%
    07:00 +1°C° 0 mm 6 mps 743 mmHg 71%
    14:00 +1°C° 0.1 mm 8 mps 747 mmHg 74%
    15:00 +3°C° 0.1 mm 7 mps 748 mmHg 69%
    16:00 +3°C° 0.1 mm 6 mps 748 mmHg 63%
    17:00 +3°C° 0 mm 6 mps 749 mmHg 67%
    18:00 +2°C° 0 mm 5 mps 750 mmHg 71%
    19:00 +1°C° 0 mm 4 mps 751 mmHg 76%
    20:00 +1°C° 0 mm 4 mps 752 mmHg 79%
    21:00 +1°C° 0 mm 4 mps 752 mmHg 82%
    22:00 0°C° 0 mm 4 mps 752 mmHg 86%
    23:00 0°C° 0 mm 4 mps 752 mmHg 87%

    Tomorrow, 22 February, Saturday

    Time Temperature Precipitation Wind Pressure Humidity
    00:00 0°C° 0 mm 4 mps 753 mmHg 89%
    01:00 0°C° 0 mm 3 mps 753 mmHg 91%
    02:00 -1°C° 0 mm 4 mps 753 mmHg 91%
    03:00 -1°C° 0 mm 4 mps 752 mmHg 91%
    04:00 -1°C° 0 mm 4 mps 752 mmHg 91%
    05:00 -1°C° 0 mm 4 mps 752 mmHg 89%
    06:00 -1°C° 0 mm 5 mps 752 mmHg 87%
    07:00 -1°C° 0 mm 5 mps 752 mmHg 86%
    08:00 -1°C° 0 mm 6 mps 751 mmHg 78%
    09:00 +2°C° 0 mm 7 mps 751 mmHg 70%
    10:00 +2°C° 0 mm 8 mps 750 mmHg 62%
    11:00 +4°C° 0 mm 8 mps 749 mmHg 61%
    12:00 +3°C° 0 mm 9 mps 748 mmHg 60%
    13:00 +5°C° 0 mm 9 mps 747 mmHg 59%
    14:00 +5°C° 0 mm 9 mps 746 mmHg 57%
    15:00 +5°C° 0 mm 9 mps 746 mmHg 56%
    16:00 +6°C° 0 mm 9 mps 745 mmHg 54%
    17:00 +6°C° 0 mm 9 mps 744 mmHg 54%
    18:00 +6°C° 0 mm 9 mps 744 mmHg 53%
    19:00 +6°C° 0 mm 9 mps 744 mmHg 53%
    20:00 +6°C° 0 mm 9 mps 743 mmHg 53%
    21:00 +6°C° 0 mm 9 mps 743 mmHg 54%
    22:00 +6°C° 0 mm 9 mps 743 mmHg 55%
    23:00 +6°C° 0.2 mm 9 mps 743 mmHg 63%

    Day after tomorrow, 23 February, Sunday

    Time Temperature Precipitation Wind Pressure Humidity
    00:00 +5°C° 0.2 mm 9 mps 743 mmHg 71%
    01:00 +5°C° 0.2 mm 8 mps 743 mmHg 79%
    02:00 +4°C° 0.4 mm 8 mps 743 mmHg 74%
    03:00 +4°C° 0.4 mm 8 mps 743 mmHg 69%
    04:00 +2°C° 0.4 mm 8 mps 743 mmHg 64%
    05:00 +2°C° 0 mm 8 mps 744 mmHg 65%
    06:00 +2°C° 0 mm 7 mps 744 mmHg 67%
    07:00 +2°C° 0 mm 7 mps 744 mmHg 68%
    08:00 +1°C° 0 mm 8 mps 744 mmHg 65%
    09:00 +2°C° 0 mm 9 mps 744 mmHg 61%
    10:00 +2°C° 0 mm 10 mps 744 mmHg 57%
    11:00 +2°C° 0 mm 10 mps 744 mmHg 58%
    12:00 +3°C° 0 mm 9 mps 744 mmHg 59%
    13:00 +3°C° 0 mm 9 mps 743 mmHg 59%
    14:00 +2°C° 0.2 mm 8 mps 742 mmHg 69%
    15:00 +2°C° 0.2 mm 7 mps 741 mmHg 78%
    16:00 +2°C° 0.2 mm 5 mps 740 mmHg 88%
    17:00 +2°C° 0.7 mm 5 mps 738 mmHg 90%
    18:00 +3°C° 0.7 mm 4 mps 737 mmHg 92%
    19:00 +1°C° 0.7 mm 4 mps 735 mmHg 95%
    20:00 +3°C° 2.3 mm 4 mps 733 mmHg 95%
    21:00 +3°C° 2.3 mm 4 mps 731 mmHg 95%
    22:00 +3°C° 2.3 mm 4 mps 730 mmHg 96%
    23:00 +1°C° 1.2 mm 6 mps 731 mmHg 96%

    24 February, Monday

    Time Temperature Precipitation Wind Pressure Humidity
    00:00 -1°C° 1.2 mm 8 mps 733 mmHg 95%
    01:00 -2°C° 1.2 mm 10 mps 735 mmHg 95%
    02:00 -2°C° 0.3 mm 10 mps 736 mmHg 93%
    03:00 -2°C° 0.3 mm 10 mps 738 mmHg 91%
    04:00 -2°C° 0.3 mm 10 mps 739 mmHg 89%
    05:00 -2°C° 0.1 mm 10 mps 740 mmHg 90%
    06:00 -2°C° 0.1 mm 10 mps 741 mmHg 90%
    07:00 -2°C° 0.1 mm 10 mps 742 mmHg 90%
    08:00 -2°C° 0.1 mm 10 mps 743 mmHg 87%
    09:00 0°C° 0.1 mm 9 mps 744 mmHg 84%
    10:00 0°C° 0.1 mm 9 mps 745 mmHg 80%
    11:00 +1°C° 0 mm 8 mps 746 mmHg 76%
    12:00 +1°C° 0 mm 8 mps 747 mmHg 72%
    13:00 +3°C° 0 mm 7 mps 747 mmHg 68%
    14:00 +3°C° 0 mm 7 mps 747 mmHg 67%
    15:00 +3°C° 0 mm 6 mps 747 mmHg 67%
    16:00 +3°C° 0 mm 6 mps 747 mmHg 67%
    17:00 +2°C° 0 mm 5 mps 747 mmHg 69%
    18:00 +2°C° 0 mm 5 mps 747 mmHg 71%
    19:00 +1°C° 0 mm 5 mps 747 mmHg 73%
    20:00 +1°C° 0 mm 4 mps 746 mmHg 75%
    21:00 +1°C° 0 mm 4 mps 746 mmHg 77%
    22:00 0°C° 0 mm 4 mps 745 mmHg 79%
    23:00 0°C° 0 mm 5 mps 744 mmHg 79%

    25 February, Tuesday

    Time Temperature Precipitation Wind Pressure Humidity
    00:00 -1°C° 0 mm 6 mps 743 mmHg 78%
    01:00 -1°C° 0 mm 6 mps 742 mmHg 77%
    02:00 0°C° 0.7 mm 7 mps 741 mmHg 81%
    03:00 0°C° 0.7 mm 7 mps 740 mmHg 84%
    04:00 0°C° 0.7 mm 7 mps 739 mmHg 87%
    05:00 +1°C° 0.7 mm 8 mps 738 mmHg 87%
    06:00 +2°C° 0.7 mm 8 mps 737 mmHg 87%
    07:00 +4°C° 0.7 mm 8 mps 736 mmHg 87%
    08:00 +5°C° 0.2 mm 8 mps 736 mmHg 86%
    09:00 +5°C° 0.2 mm 8 mps 736 mmHg 86%
    10:00 +6°C° 0.2 mm 8 mps 735 mmHg 86%
    11:00 +6°C° 0.3 mm 7 mps 735 mmHg 84%
    12:00 +8°C° 0.3 mm 7 mps 735 mmHg 82%
    13:00 +8°C° 0.3 mm 7 mps 734 mmHg 80%
    14:00 +8°C° 0.6 mm 7 mps 734 mmHg 82%
    15:00 +6°C° 0.6 mm 7 mps 733 mmHg 83%
    16:00 +6°C° 0.6 mm 7 mps 733 mmHg 84%
    17:00 +5°C° 0.9 mm 6 mps 733 mmHg 81%
    18:00 +6°C° 0.9 mm 5 mps 733 mmHg 78%
    19:00 +5°C° 0.9 mm 4 mps 733 mmHg 75%
    20:00 +4°C° 0 mm 4 mps 733 mmHg 75%
    21:00 +4°C° 0 mm 4 mps 733 mmHg 74%
    22:00 +3°C° 0 mm 4 mps 733 mmHg 74%
    23:00 +1°C° 0 mm 4 mps 733 mmHg 74%

    26 February, Wednesday

    Time Temperature Precipitation Wind Pressure Humidity
    00:00 +1°C° 0 mm 4 mps 733 mmHg 74%
    01:00 +1°C° 0 mm 5 mps 732 mmHg 74%
    02:00 +1°C° 0 mm 5 mps 732 mmHg 75%
    03:00 -1°C° 0 mm 6 mps 732 mmHg 76%
    04:00 -1°C° 0 mm 6 mps 731 mmHg 77%
    05:00 -1°C° 0 mm 6 mps 731 mmHg 79%
    06:00 -1°C° 0 mm 6 mps 731 mmHg 80%
    07:00 0°C° 0 mm 5 mps 731 mmHg 81%
    08:00 0°C° 0.1 mm 5 mps 730 mmHg 81%
    09:00 +1°C° 0.1 mm 5 mps 730 mmHg 81%
    10:00 +1°C° 0.1 mm 5 mps 730 mmHg 81%
    11:00 +2°C° 0 mm 5 mps 730 mmHg 74%
    12:00 +3°C° 0 mm 5 mps 730 mmHg 67%
    13:00 +4°C° 0 mm 6 mps 730 mmHg 60%
    14:00 +3°C° 0.8 mm 7 mps 729 mmHg 68%
    15:00 0°C° 0.8 mm 9 mps 729 mmHg 76%
    16:00 -2°C° 0.8 mm 10 mps 729 mmHg 84%
    17:00 -1°C° 0.4 mm 9 mps 730 mmHg 84%
    18:00 -1°C° 0.4 mm 8 mps 730 mmHg 85%
    19:00 -1°C° 0.4 mm 6 mps 731 mmHg 86%
    20:00 -1°C° 0.2 mm 6 mps 731 mmHg 86%
    21:00 -1°C° 0.2 mm 6 mps 732 mmHg 85%
    22:00 -1°C° 0.2 mm 6 mps 732 mmHg 84%
    23:00 -1°C° 0 mm 7 mps 732 mmHg 84%
    Show more